Location: Ferques
(50.8300°N, 1.7599°E)
Time: 07:28:08
(UTC+00:00)

USA 59 Rocket - Pass Details

Date: 19 May 2025
Orbit: 373 x 1695 km, 63.3° (Epoch: 18 June)

Event Time Altitude Azimuth Distance (km) Brightness Sun altitude
Exits shadow 22:09:51 18° 91° (E) 1,060 1.0 -15.9°
Drops below altitude 10° 22:11:06 10° 70° (ENE) 1,416 1.9 -16.0°
Sets 22:13:16 0° 54° (NE) 2,245 3.1 -16.1°
